STARLINK-3077 (49133 NORAD) Tracking and Keplerian Element Data

This shows tracking and keplerian element data for the satellite.

Feedback or suggestion? Click here.




ElementValue
Catalog49133
NameSTARLINK-3077
Epoch Orbit697
Epoch Day300.91667824
Epoch Year2021
RAAN3.8065
Inclination70.0001
Eccentricity0.0003706
Argument of Perigee290.861
Mean Anonmoly133.2685
Mean Motion15.69753511
Decay Rate-1.574E-05
L11 49133U 21082D 21300.91667824 -.00001574 00000-0 -11402-4 0 9993
L22 49133 70.0001 3.8065 0003706 290.8610 133.2685 15.69753511 6977

Live tracking and technical data element details for STARLINK-3077 (NORAD 49133). STARLINK-3077 can be tracked NOW for your location showing map with azimuth and elevation plus other details from your city location.

Track the satellite on the map from your city or location and see movement details for azimuth, elevation, latitude, longitude, range, height, and movement on the map or in text.







IsCatalogInMostPopularTable: catalog: 49133, numindb: 6
Update: records affected: 1



GetName: 49133 STARLINK-3077

Hit Count: updated at: Thu, 28 Oct 2021 11:21:45 GMT